P/2012 G1 ( PanSTARRS ) 2020

Japanese version
Home page
Updated on March 15, 2022

---------------------------------------------------------------------

* Profile

* Orbital Elements

Epoch 2022 Jan. 21.0 TT = JDT 2459600.5                                         
T 2020 Sept. 30.23237 TT                                Rudenko                 
q   2.7910403            (2000.0)            P               Q                  
n   0.11598300     Peri.  266.05767     -0.96490614     +0.16376045             
a   4.1642790      Node   283.28014     -0.06043667     -0.89923020             
e   0.3297663      Incl.   12.17611     -0.25554557     -0.40566927             
P   8.50                                                                        
From 22 observations 2012 Mar. 27-May 17, mean residual 0".4.                   

* Magnitudes Graph

        m1 = 15.0 + 5 log d + 10.0 log r

---------------------------------------------------------------------

The orbital elements are published on M.P.E.C. 2022-E133.
The magnitudes graphs are made with Comet for Windows.

---------------------------------------------------------------------

Copyright(C) Seiichi Yoshida (comet@aerith.net). All rights reserved.